Torna al catalogo

STARLINK-1771

AttivoComunicazioniVLEO
NORAD 46384·PAYLOAD·🇺🇸 United States

Lanciato Sep 3, 2020 da Cape Canaveral Space Force Station

Loading…

Prossimi Passaggi (prossime 24 ore)

TLE

AggiornatoSource: CelesTrak SupGP

Epoca: Sep 14, 2026, 20:34 UTC

1 46384C 20062BN  26257.85743056  .00030677  00000+0  21386-3 0  2577
2 46384  53.0325 142.6570 0004212 115.4193  25.5802 15.73627900    16

Traccia STARLINK-1771 in tempo reale con AllMySat

Download on the App Store